Location: Coopersdale
(40.3556°N, 78.9372°W)
Time: 13:40:46
(UTC+00:00)

SR - All Passes

Search period start: 25 January 2021 00:00
Search period end: 04 February 2021 00:00
Orbit: 575 x 880 km, 66.7° (Epoch: 25 January)

Date Brightness Start Highest point End Pass type
(mag) Time Alt. Az. Time Alt. Az. Time Alt. Az.
25 Jan - 07:54:19 10° ESE 07:55:49 11° ESE 07:57:21 10° E visible
25 Jan - 09:32:16 10° SSW 09:36:58 77° WNW 09:42:10 10° NNE visible
25 Jan - 11:17:40 10° WNW 11:20:05 13° NW 11:22:34 10° N visible
25 Jan - 16:32:24 10° N 16:35:42 15° NE 16:39:02 10° ENE daylight
25 Jan - 18:12:55 10° NNW 18:18:47 72° ENE 18:24:41 10° SE daylight
25 Jan - 19:56:31 10° WNW 20:00:19 18° WSW 20:04:07 10° SW daylight
26 Jan - 08:42:47 10° S 08:47:18 50° ESE 08:52:15 10° NE visible
26 Jan - 10:25:54 10° W 10:29:44 23° NW 10:33:51 10° N visible
26 Jan - 17:23:23 10° NNW 17:28:51 40° NE 17:34:24 10° ESE daylight
26 Jan - 19:05:39 10° NW 19:10:54 35° WSW 19:16:10 10° S daylight
27 Jan - 07:54:09 10° SSE 07:57:52 24° ESE 08:01:51 10° NE visible
27 Jan - 09:35:05 10° SW 09:39:36 41° NW 09:44:33 10° NNE visible
27 Jan - 16:34:06 10° N 16:38:44 24° NE 16:43:25 10° E daylight
27 Jan - 18:15:30 10° NW 18:21:19 66° WSW 18:27:10 10° SSE daylight
28 Jan - 07:07:42 10° ESE 07:08:37 10° E 07:09:33 10° E night (unlit)
28 Jan - 08:45:00 10° SSW 08:49:43 82° WNW 08:54:57 10° NNE visible
28 Jan - 10:30:06 10° WNW 10:32:45 14° NW 10:35:31 10° N visible
28 Jan - 15:45:17 10° N 15:48:24 15° NE 15:51:33 10° ENE daylight
28 Jan - 17:25:43 10° NNW 17:31:33 68° ENE 17:37:27 10° SE daylight
28 Jan - 19:09:07 10° WNW 19:13:07 19° WSW 19:17:07 10° SSW daylight
29 Jan - 07:55:34 10° S 08:00:04 47° ESE 08:05:01 10° NE visible
29 Jan - 09:38:27 10° W 09:42:26 24° NW 09:46:41 10° N visible
29 Jan - 16:36:11 10° NNW 16:41:36 38° NE 16:47:05 10° ESE daylight
29 Jan - 18:18:21 10° NW 18:23:42 37° WSW 18:29:02 10° S daylight
30 Jan - 07:07:02 10° SSE 07:10:39 22° ESE 07:14:31 10° ENE night (unlit)
30 Jan - 08:47:44 10° SW 08:52:19 44° NW 08:57:22 10° NNE visible
30 Jan - 15:46:55 10° N 15:51:27 23° NE 15:56:02 10° E daylight
30 Jan - 17:28:15 10° NW 17:34:06 70° WSW 17:39:58 10° SSE daylight
31 Jan - 07:57:42 10° SSW 08:02:27 88° WNW 08:07:43 10° NNE visible
31 Jan - 09:42:33 10° WNW 09:45:26 15° NW 09:48:27 10° N visible
31 Jan - 14:58:10 10° N 15:01:05 14° NE 15:04:03 10° ENE daylight
31 Jan - 16:38:28 10° NNW 16:44:19 64° ENE 16:50:11 10° SE daylight
31 Jan - 18:21:43 10° WNW 18:25:56 20° WSW 18:30:07 10° SSW daylight
01 Feb - 07:08:21 10° S 07:12:50 44° ESE 07:17:45 10° NE night (unlit)
01 Feb - 08:51:03 10° WSW 08:55:08 26° NW 08:59:32 10° N visible
01 Feb - 15:48:58 10° NNW 15:54:21 36° NE 15:59:46 10° ESE daylight
01 Feb - 17:31:04 10° NW 17:36:30 39° WSW 17:41:54 10° S daylight
02 Feb - 06:19:55 10° SSE 06:23:26 21° ESE 06:27:11 10° ENE night (unlit)
02 Feb - 08:00:24 10° SW 08:05:03 47° NW 08:10:10 10° NNE visible
02 Feb - 14:59:45 10° N 15:04:10 22° NE 15:08:38 10° E daylight
02 Feb - 16:40:59 10° NNW 16:46:53 75° WSW 16:52:45 10° SSE daylight
02 Feb - 18:27:18 10° W 18:28:00 10° W 18:28:44 10° WSW daylight
03 Feb - 07:10:26 10° SSW 07:15:12 86° ESE 07:20:30 10° NNE night (unlit)
03 Feb - 08:55:02 10° WNW 08:58:07 16° NW 09:01:22 10° N visible
03 Feb - 14:11:03 10° N 14:13:47 13° NE 14:16:32 10° ENE daylight
03 Feb - 15:51:14 10° NNW 15:57:04 61° ENE 16:02:55 10° SE daylight
03 Feb - 17:34:21 10° WNW 17:38:44 22° WSW 17:43:05 10° SSW daylight
